GSAT0206 (GALILEO 10) (40890 NORAD) Tracking and Keplerian Element Data

This shows tracking and keplerian element data for the satellite.

Feedback or suggestion? Click here.




ElementValue
Catalog40890
NameGSAT0206 (GALILEO 10)
Epoch Orbit4386
Epoch Day269.75216066
Epoch Year2022
RAAN259.1595
Inclination55.5625
Eccentricity0.000308
Argument of Perigee322.7688
Mean Anonmoly37.1937
Mean Motion1.70473229
Decay Rate3.1E-07
L11 40890U 15045B 22269.75216066 .00000031 00000+0 00000+0 0 9992
L22 40890 55.5625 259.1595 0003080 322.7688 37.1937 1.70473229 43860

Live tracking and technical data element details for GSAT0206 (GALILEO 10) (NORAD 40890). GSAT0206 (GALILEO 10) can be tracked NOW for your location showing map with azimuth and elevation plus other details from your city location.

Track the satellite on the map from your city or location and see movement details for azimuth, elevation, latitude, longitude, range, height, and movement on the map or in text.







IsCatalogInMostPopularTable: catalog: 40890, numindb: 591
Update: records affected: 1



GetName: 40890 GSAT0206 (GALILEO 10)

Hit Count: updated at: Thu, 29 Sep 2022 11:18:14 GMT